• In Netherlands
  • List of Countries
  • For 7 days
  • Water Temperature
  • Satellite Maps
  • Weather Map
  • Weather Widgets
  • user-avatar
    Login

    Hourly Weather Columbia

    Today, 23 November, Thursday

    Time Temperature Precipitation Wind Pressure Humidity
    00:00 0°C° 0 mm 4 mps 766 mmHg 60%
    01:00 0°C° 0 mm 3 mps 766 mmHg 61%
    02:00 0°C° 0 mm 3 mps 766 mmHg 62%
    03:00 0°C° 0 mm 3 mps 766 mmHg 63%
    04:00 -1°C° 0 mm 2 mps 766 mmHg 63%
    05:00 -1°C° 0 mm 2 mps 766 mmHg 64%
    06:00 -1°C° 0 mm 2 mps 766 mmHg 65%
    07:00 -1°C° 0 mm 2 mps 766 mmHg 66%
    08:00 +1°C° 0 mm 2 mps 766 mmHg 59%
    09:00 +3°C° 0 mm 2 mps 766 mmHg 53%
    10:00 +4°C° 0 mm 2 mps 766 mmHg 47%
    11:00 +5°C° 0 mm 2 mps 765 mmHg 43%
    12:00 +6°C° 0 mm 2 mps 764 mmHg 39%
    13:00 +8°C° 0 mm 2 mps 763 mmHg 35%
    14:00 +9°C° 0 mm 1 mps 763 mmHg 37%
    15:00 +8°C° 0 mm 1 mps 763 mmHg 38%
    16:00 +8°C° 0 mm 1 mps 762 mmHg 40%
    17:00 +7°C° 0 mm 1 mps 762 mmHg 43%
    18:00 +6°C° 0 mm 1 mps 763 mmHg 46%
    19:00 +5°C° 0 mm 1 mps 763 mmHg 49%
    20:00 +5°C° 0 mm 1 mps 763 mmHg 51%
    21:00 +5°C° 0 mm 1 mps 763 mmHg 54%
    22:00 +4°C° 0 mm 1 mps 763 mmHg 56%
    23:00 +4°C° 0 mm 1 mps 763 mmHg 58%

    Tomorrow, 24 November, Friday

    Time Temperature Precipitation Wind Pressure Humidity
    00:00 +4°C° 0 mm 1 mps 763 mmHg 60%
    01:00 +4°C° 0 mm 1 mps 763 mmHg 61%
    02:00 +4°C° 0 mm 1 mps 763 mmHg 62%
    03:00 +3°C° 0 mm 1 mps 763 mmHg 63%
    04:00 +2°C° 0 mm 0 mps 763 mmHg 64%
    05:00 +2°C° 0 mm 0 mps 763 mmHg 64%
    06:00 +2°C° 0 mm 0 mps 763 mmHg 65%
    07:00 +2°C° 0 mm 0 mps 764 mmHg 65%
    08:00 +5°C° 0 mm 1 mps 764 mmHg 60%
    09:00 +6°C° 0 mm 1 mps 764 mmHg 54%
    10:00 +8°C° 0 mm 1 mps 764 mmHg 48%
    11:00 +9°C° 0 mm 1 mps 763 mmHg 45%
    12:00 +10°C° 0 mm 2 mps 762 mmHg 42%
    13:00 +12°C° 0 mm 2 mps 762 mmHg 40%
    14:00 +12°C° 0 mm 2 mps 761 mmHg 42%
    15:00 +10°C° 0 mm 2 mps 761 mmHg 44%
    16:00 +10°C° 0 mm 2 mps 761 mmHg 46%
    17:00 +9°C° 0 mm 2 mps 761 mmHg 49%
    18:00 +8°C° 0 mm 2 mps 761 mmHg 53%
    19:00 +7°C° 0 mm 3 mps 761 mmHg 57%
    20:00 +7°C° 0 mm 3 mps 761 mmHg 59%
    21:00 +5°C° 0 mm 3 mps 761 mmHg 60%
    22:00 +5°C° 0 mm 3 mps 761 mmHg 62%
    23:00 +5°C° 0 mm 3 mps 760 mmHg 64%

    Day after tomorrow, 25 November, Saturday

    Time Temperature Precipitation Wind Pressure Humidity
    00:00 +4°C° 0 mm 3 mps 760 mmHg 65%
    01:00 +4°C° 0 mm 3 mps 759 mmHg 66%
    02:00 +4°C° 0 mm 3 mps 759 mmHg 67%
    03:00 +3°C° 0 mm 3 mps 758 mmHg 68%
    04:00 +4°C° 0 mm 2 mps 758 mmHg 68%
    05:00 +4°C° 0 mm 2 mps 758 mmHg 69%
    06:00 +4°C° 0 mm 2 mps 757 mmHg 70%
    07:00 +4°C° 0 mm 2 mps 757 mmHg 71%
    08:00 +5°C° 0 mm 2 mps 757 mmHg 67%
    09:00 +7°C° 0 mm 2 mps 757 mmHg 64%
    10:00 +8°C° 0 mm 2 mps 756 mmHg 60%
    11:00 +10°C° 0 mm 2 mps 756 mmHg 58%
    12:00 +12°C° 0 mm 2 mps 755 mmHg 56%
    13:00 +14°C° 0 mm 2 mps 755 mmHg 54%
    14:00 +14°C° 0 mm 2 mps 755 mmHg 58%
    15:00 +13°C° 0 mm 2 mps 754 mmHg 62%
    16:00 +13°C° 0 mm 1 mps 754 mmHg 67%
    17:00 +12°C° 0 mm 1 mps 755 mmHg 70%
    18:00 +12°C° 0 mm 1 mps 755 mmHg 74%
    19:00 +10°C° 0 mm 2 mps 756 mmHg 77%
    20:00 +10°C° 0 mm 2 mps 756 mmHg 78%
    21:00 +9°C° 0 mm 3 mps 756 mmHg 78%
    22:00 +8°C° 0 mm 4 mps 757 mmHg 78%
    23:00 +7°C° 0 mm 4 mps 757 mmHg 75%

    26 November, Sunday

    Time Temperature Precipitation Wind Pressure Humidity
    00:00 +6°C° 0 mm 4 mps 757 mmHg 72%
    01:00 +6°C° 0 mm 4 mps 757 mmHg 68%
    02:00 +5°C° 0 mm 5 mps 758 mmHg 68%
    03:00 +5°C° 0 mm 5 mps 758 mmHg 67%
    04:00 +3°C° 0 mm 5 mps 758 mmHg 67%
    05:00 +3°C° 0 mm 5 mps 759 mmHg 68%
    06:00 +3°C° 0 mm 5 mps 760 mmHg 69%
    07:00 +3°C° 0 mm 5 mps 760 mmHg 69%
    08:00 +3°C° 0 mm 5 mps 761 mmHg 63%
    09:00 +4°C° 0 mm 6 mps 761 mmHg 57%
    10:00 +4°C° 0 mm 6 mps 762 mmHg 50%
    11:00 +5°C° 0 mm 6 mps 762 mmHg 49%
    12:00 +5°C° 0 mm 6 mps 762 mmHg 47%
    13:00 +7°C° 0 mm 6 mps 762 mmHg 45%
    14:00 +7°C° 0 mm 6 mps 762 mmHg 47%
    15:00 +6°C° 0 mm 5 mps 762 mmHg 48%
    16:00 +6°C° 0 mm 5 mps 762 mmHg 49%
    17:00 +5°C° 0 mm 5 mps 763 mmHg 52%
    18:00 +3°C° 0 mm 5 mps 764 mmHg 56%
    19:00 +4°C° 0 mm 4 mps 765 mmHg 59%
    20:00 +3°C° 0 mm 4 mps 765 mmHg 61%
    21:00 +3°C° 0 mm 4 mps 765 mmHg 63%
    22:00 +2°C° 0 mm 3 mps 766 mmHg 65%
    23:00 +2°C° 0 mm 3 mps 766 mmHg 66%

    27 November, Monday

    Time Temperature Precipitation Wind Pressure Humidity
    00:00 +2°C° 0 mm 2 mps 766 mmHg 67%
    01:00 +2°C° 0 mm 2 mps 766 mmHg 68%
    02:00 +2°C° 0 mm 2 mps 766 mmHg 69%
    03:00 +2°C° 0 mm 2 mps 766 mmHg 69%
    04:00 +2°C° 0 mm 2 mps 766 mmHg 70%
    05:00 +2°C° 0 mm 2 mps 766 mmHg 71%
    06:00 +1°C° 0 mm 2 mps 766 mmHg 72%
    07:00 +1°C° 0 mm 2 mps 766 mmHg 73%
    08:00 +3°C° 0 mm 2 mps 767 mmHg 66%
    09:00 +5°C° 0 mm 2 mps 767 mmHg 60%
    10:00 +6°C° 0 mm 2 mps 767 mmHg 53%
    11:00 +8°C° 0 mm 2 mps 766 mmHg 48%
    12:00 +9°C° 0 mm 2 mps 766 mmHg 44%
    13:00 +12°C° 0 mm 2 mps 765 mmHg 40%
    14:00 +10°C° 0 mm 2 mps 765 mmHg 42%
    15:00 +10°C° 0 mm 2 mps 765 mmHg 44%
    16:00 +10°C° 0 mm 2 mps 764 mmHg 47%
    17:00 +9°C° 0 mm 2 mps 765 mmHg 51%
    18:00 +8°C° 0 mm 2 mps 765 mmHg 56%
    19:00 +7°C° 0 mm 2 mps 765 mmHg 60%
    20:00 +6°C° 0 mm 2 mps 765 mmHg 63%
    21:00 +6°C° 0 mm 2 mps 765 mmHg 66%
    22:00 +6°C° 0 mm 2 mps 765 mmHg 68%
    23:00 +6°C° 0 mm 2 mps 765 mmHg 71%

    28 November, Tuesday

    Time Temperature Precipitation Wind Pressure Humidity
    00:00 +5°C° 0 mm 2 mps 765 mmHg 74%
    01:00 +4°C° 0 mm 3 mps 765 mmHg 77%
    02:00 +4°C° 0 mm 3 mps 765 mmHg 78%
    03:00 +4°C° 0 mm 3 mps 765 mmHg 79%
    04:00 +4°C° 0 mm 3 mps 764 mmHg 80%
    05:00 +4°C° 0 mm 3 mps 764 mmHg 79%
    06:00 +4°C° 0 mm 3 mps 765 mmHg 78%
    07:00 +4°C° 0 mm 3 mps 765 mmHg 77%
    08:00 +5°C° 0 mm 3 mps 765 mmHg 70%
    09:00 +7°C° 0 mm 4 mps 764 mmHg 63%
    10:00 +8°C° 0 mm 4 mps 764 mmHg 56%
    11:00 +11°C° 0 mm 4 mps 764 mmHg 53%
    12:00 +13°C° 0 mm 4 mps 763 mmHg 49%
    13:00 +14°C° 0 mm 4 mps 762 mmHg 45%
    14:00 +14°C° 0 mm 4 mps 762 mmHg 47%
    15:00 +14°C° 0 mm 4 mps 762 mmHg 49%
    16:00 +14°C° 0 mm 4 mps 762 mmHg 50%
    17:00 +13°C° 0 mm 4 mps 762 mmHg 53%
    18:00 +12°C° 0 mm 4 mps 763 mmHg 56%
    19:00 +12°C° 0 mm 4 mps 763 mmHg 59%
    20:00 +11°C° 0 mm 4 mps 763 mmHg 60%
    21:00 +11°C° 0 mm 4 mps 763 mmHg 61%
    22:00 +10°C° 0 mm 4 mps 763 mmHg 62%
    23:00 +10°C° 0 mm 3 mps 763 mmHg 64%
    Show more